Weather History for KCMA - October, 2012

Change the Weather History Date:

Saturday, October 13, 2012

  Actual Average Record
Temperature  
Mean Temperature 63 °F 63 °F  
Max Temperature 73 °F 74 °F 99 °F (1961)
Min Temperature 52 °F 53 °F 43 °F (1960)
Degree Days  
Heating Degree Days 2 3  
Month to date heating degree days 11 28  
Since 1 July heating degree days 46 60  
Cooling Degree Days 0 1  
Month to date cooling degree days 23 13  
Year to date cooling degree days 314 296  
Growing Degree Days 12 (Base 50)    
Moisture  
Dew Point 52 °F    
Average Humidity 71    
Maximum Humidity 93    
Minimum Humidity 49    
Precipitation  
Precipitation 0.00 in 0.02 in 0.73 in (2009)
Month to date precipitation T 0.17  
Year to date precipitation 5.72 11.39  
Since 1 July precipitation 0.04 0.41  
Sea Level Pressure  
Sea Level Pressure 30.15 in    
Wind  
Wind Speed 4 mph (SW)    
Max Wind Speed 13 mph    
Max Gust Speed 16 mph    
Visibility 10 miles    
Events      
T = Trace of Precipitation, MM = Missing Value Source: NWS Daily Summary

Daily Weather History Graph

Daily Weather History Graph

Search for Another Location

Airport or City:

Trip Planner

Search our weather history database for the weather conditions in past years. The results will help you decide how hot, cold, wet, or windy it might be!

Date:

Astronomy

Oct. 13, 2012 Rise Set
Actual Time 7:00 AM PDT 6:23 PM PDT
Civil Twilight 6:35 AM PDT 6:49 PM PDT
Nautical Twilight 6:06 AM PDT 7:18 PM PDT
Astronomical Twilight 5:37 AM PDT 7:47 PM PDT
Moon 4:59 AM PDT (10/13) 5:08 PM PDT (10/13)
Length of Visible Light 12h 13m
Length of Day
11h 23m
Waning Crescent, 4% of the Moon is Illuminated
Oct 13
Waning Crescent
Oct 15
New
Oct 21
First Quarter
Oct 29
Full
Nov 6
Last Quarter

Hourly Weather History & Observations

Time (PDT) Temp. Dew Point Humidity Pressure Visibility Wind Dir Wind Speed Gust Speed Precip Events Conditions
12:55 AM 59.0 °F 54.0 °F 83% 30.17 in 10.0 mi ENE 5.8 mph - N/A   Clear
1:55 AM 57.0 °F 53.1 °F 87% 30.17 in 10.0 mi ENE 4.6 mph - N/A   Clear
2:55 AM 55.9 °F 52.0 °F 87% 30.17 in 10.0 mi Calm Calm - N/A   Clear
3:55 AM 54.0 °F 51.1 °F 90% 30.17 in 10.0 mi Calm Calm - N/A   Clear
4:55 AM 54.0 °F 50.0 °F 86% 30.17 in 10.0 mi ENE 4.6 mph - N/A   Clear
5:55 AM 55.0 °F 51.1 °F 86% 30.18 in 10.0 mi ENE 4.6 mph - N/A   Clear
6:55 AM 52.0 °F 48.9 °F 89% 30.19 in 10.0 mi WNW 3.5 mph - N/A   Clear
7:55 AM 55.9 °F 51.1 °F 84% 30.20 in 10.0 mi ENE 5.8 mph - N/A   Clear
9:55 AM 64.0 °F 53.1 °F 67% 30.22 in 10.0 mi Calm Calm - N/A   Clear
10:55 AM 68.0 °F 54.0 °F 61% 30.20 in 10.0 mi SSW 3.5 mph - N/A   Clear
11:55 AM 72.0 °F 51.1 °F 48% 30.18 in 10.0 mi SSW 5.8 mph - N/A   Clear
12:55 PM 73.0 °F 53.1 °F 49% 30.15 in 10.0 mi SSW 8.1 mph - N/A   Clear
1:55 PM 72.0 °F 54.0 °F 53% 30.12 in 10.0 mi WSW 9.2 mph - N/A   Clear
2:55 PM 72.0 °F 52.0 °F 49% 30.10 in 10.0 mi WSW 6.9 mph - N/A   Clear
3:55 PM 71.1 °F 53.1 °F 53% 30.09 in 10.0 mi SW 6.9 mph - N/A   Clear
5:55 PM 66.9 °F 55.0 °F 66% 30.08 in 10.0 mi West 5.8 mph - N/A   Clear
7:55 PM 64.0 °F 57.0 °F 78% 30.10 in 10.0 mi Calm Calm - N/A   Clear
10:55 PM 57.9 °F 51.1 °F 78% 30.09 in 10.0 mi Calm Calm - N/A   Clear
11:55 PM 57.9 °F 52.0 °F 81% 30.08 in 10.0 mi Calm Calm - N/A   Clear